RH
16 8 14 18 45 66 58 51 53 50 51 42 33 24 16 20 24 18 8 8 18 27 38 39 31 23 15 22 35 36 35 28 24 31 45 47 44 34 36 62 53 49 52 46
11 23 31 27 16 6 5 5 5 5 4 3 3 2 2 2 2 2 2 2 2 2 2 2 14 26 29 28 23 20 18 25 21 19 25 40 48 55 49 36 58 60 54 56
5 5 4 4 5 5 4 4 4 4 3 3 2 2 2 2 2 2 2 2 2 1 1 1 1 1 2 6 11 18 24 24 29 20 16 22 31 49 54 56 37 68 72 64
5 6 6 7 7 6 6 5 4 3 3 2 2 2 2 2 2 2 1 1 1 1 1 1 1 1 1 1 1 2 4 12 26 30 27 16 25 33 50 63 60 45 58 82
6 8 8 8 7 7 6 4 3 3 2 2 2 2 2 2 1 1 1 1 1 1 1 2 1 1 1 1 1 1 1 2 4 15 27 29 20 25 35 54 74 65 59 48
8 9 10 10 9 8 6 5 4 3 3 2 2 2 2 1 1 1 1 1 1 3 6 11 19 21 20 19 11 3 1 1 1 1 4 15 25 23 27 33 62 80 84 73
10 11 11 10 10 8 7 6 5 4 3 3 3 2 2 2 2 2 2 2 4 13 22 37 30 44 37 33 36 34 8 3 1 1 1 2 8 23 22 28 31 56 87 93
12 12 12 11 11 9 9 8 6 4 4 3 3 3 2 2 2 2 2 3 10 22 30 30 43 54 52 48 50 54 50 39 16 3 2 1 1 4 22 24 29 33 51 71
14 14 11 11 11 10 10 9 7 6 4 4 4 4 3 3 3 3 2 2 9 22 24 20 23 41 46 60 55 59 63 61 44 20 17 5 2 2 3 17 22 24 34 54
15 13 12 12 12 12 11 10 9 8 6 5 4 4 4 4 4 3 3 3 4 11 15 15 16 22 27 29 35 68 55 64 66 43 20 24 10 4 2 2 10 17 16 39
16 14 13 13 13 12 12 12 11 10 8 6 6 6 5 5 6 5 4 5 5 5 4 4 4 6 8 9 14 18 43 58 66 57 60 24 22 21 7 4 2 4 7 10
18 15 13 14 13 12 11 11 12 12 11 10 8 8 7 7 7 7 7 7 6 6 6 6 5 5 5 5 4 4 6 12 34 58 70 63 36 22 25 14 5 3 2 4
19 16 13 12 12 12 12 12 12 13 12 12 11 10 9 9 9 9 10 9 8 8 9 8 8 7 8 7 7 6 6 4 4 3 7 50 74 54 50 40 24 19 13 6
21 19 16 15 14 15 13 14 14 13 13 12 14 14 12 11 11 11 11 12 11 10 10 10 10 10 11 10 10 9 9 8 8 6 5 4 3 7 31 50 48 44 38 30
24 22 17 14 15 15 14 14 15 16 16 14 14 15 15 15 13 14 14 13 14 14 14 13 12 13 12 12 13 12 12 12 11 9 8 6 5 4 4 3 3 3 4 7
27 25 19 15 15 14 14 14 16 18 17 17 15 17 14 15 14 14 16 14 16 16 16 15 16 16 14 13 14 15 14 14 13 11 8 6 5 4 4 3 3 3 2 2
31 28 23 17 17 16 14 17 17 17 18 19 19 18 18 18 17 18 18 16 18 19 19 19 20 19 16 15 15 14 14 14 13 11 9 7 6 5 5 4 4 4 3 3
32 28 24 20 20 18 16 19 18 17 17 17 18 20 22 21 20 22 21 19 21 21 22 22 22 20 18 17 15 14 14 12 12 12 10 8 8 7 6 5 5 5 4 4
35 30 25 23 21 19 19 20 21 18 17 16 16 17 22 23 22 23 22 22 22 22 23 24 24 22 20 18 16 14 14 13 13 12 11 10 10 8 8 7 6 5 5 4
37 31 28 25 22 20 17 20 23 22 16 17 17 17 19 20 23 23 23 23 24 25 25 26 27 26 23 19 16 15 16 16 16 15 13 12 11 10 9 8 7 6 5 5
39 33 27 26 23 19 19 20 24 24 20 19 17 18 18 19 23 25 25 25 26 26 27 28 28 26 25 21 18 17 18 17 16 15 14 13 13 12 10 10 8 7 6 5
43 38 31 28 25 19 22 19 21 26 24 21 18 19 19 20 23 27 28 29 29 29 28 29 29 27 24 22 20 19 19 18 17 16 16 15 14 13 11 10 9 8 6 5
39 38 36 33 31 34 30 24 20 24 26 22 19 20 20 21 22 26 31 31 32 31 28 28 29 27 24 22 22 21 20 19 18 18 18 17 16 15 14 12 10 8 6 5
34 36 38 30 28 27 24 21 19 24 26 24 20 20 21 21 22 25 32 34 34 35 34 31 30 28 27 26 22 21 21 21 20 20 20 19 19 17 15 13 10 8 6 5
26 24 27 33 32 31 28 25 22 26 26 25 22 21 22 22 24 27 31 34 36 39 38 35 33 30 29 27 24 23 24 25 24 22 22 22 20 18 16 14 11 9 7 4
27 23 22 22 32 31 28 24 21 21 26 26 23 22 24 24 25 29 31 34 36 41 43 42 40 36 33 31 28 26 26 27 28 26 25 24 22 19 17 14 11 10 6 3
Wind_Speed
17 16 15 17 22 25 24 23 23 23 24 27 29 31 33 35 37 38 39 41 43 45 48 52 53 53 57 63 64 61 59 58 55 52 55 51 49 49 51 55 54 52 50 47
15 15 17 18 16 16 19 21 22 23 24 25 26 28 30 31 33 35 38 40 41 43 46 49 54 58 60 60 60 61 63 61 61 60 60 58 58 55 54 53 58 58 57 54
13 14 14 14 14 16 17 19 20 23 23 21 22 23 25 27 30 33 37 40 44 47 49 51 54 58 61 64 66 67 65 62 63 63 64 64 64 62 61 60 58 63 63 63
16 15 14 14 16 16 17 18 19 20 19 20 18 21 24 26 29 32 34 38 43 47 50 53 57 62 65 67 68 70 72 71 68 66 65 67 68 67 67 65 66 63 66 70
16 16 18 17 18 17 16 17 18 19 17 15 17 20 22 22 23 23 25 29 34 40 44 47 53 59 63 68 73 74 75 77 76 75 71 68 71 71 69 69 70 69 70 72
18 18 18 17 17 17 17 17 17 17 16 17 17 16 17 14 15 19 23 27 30 33 33 30 29 29 32 37 47 61 78 81 81 80 80 77 72 73 72 72 69 73 75 74
18 18 18 17 16 17 17 17 18 17 16 14 15 14 14 13 14 17 21 25 25 25 20 19 23 28 25 26 24 26 41 59 81 86 84 84 81 75 76 74 74 72 82 67
19 19 18 16 17 16 16 16 15 15 14 13 14 14 12 11 13 16 20 22 19 16 15 18 20 23 20 18 21 21 21 24 51 70 85 86 85 83 79 78 79 79 78 81
20 18 16 16 17 16 15 14 13 13 13 13 13 13 12 12 12 14 18 19 16 13 18 21 19 20 16 12 14 18 22 23 23 37 61 75 86 84 84 83 81 85 79 84
20 19 18 18 17 16 14 13 13 13 14 14 14 14 13 13 12 13 15 14 13 14 20 26 27 22 20 19 16 15 15 14 19 20 28 54 67 80 83 84 85 86 81 81
19 19 19 18 17 17 15 14 14 15 15 16 15 15 14 14 13 13 14 16 14 14 16 20 18 18 20 20 21 19 17 16 15 17 18 18 43 62 74 79 84 86 88 82
21 21 21 20 19 18 15 14 14 14 14 15 15 13 14 13 13 14 13 13 11 11 13 14 16 17 18 17 17 16 17 19 17 17 15 14 12 20 48 69 75 83 88 90
24 24 22 22 20 17 15 14 13 14 14 13 15 14 15 13 13 13 14 16 15 11 10 11 11 13 15 16 16 17 16 17 18 17 16 16 14 12 10 19 37 62 82 84
27 25 23 22 20 19 17 16 15 14 13 13 13 13 14 16 13 14 14 14 15 14 14 13 13 14 14 15 15 16 17 18 18 19 19 18 17 18 20 21 24 25 30 40
31 27 25 24 22 21 19 17 16 14 14 12 12 11 13 16 15 15 17 15 15 14 15 16 16 18 18 19 19 20 20 20 20 21 21 21 19 19 20 21 23 27 32 39
33 31 27 27 25 25 22 19 16 15 14 12 12 10 13 14 15 15 18 16 16 16 17 18 19 20 20 20 21 21 21 21 21 20 20 22 22 23 23 24 25 28 32 36
39 35 32 30 27 28 25 16 18 17 15 15 11 13 13 15 15 15 18 17 17 17 18 19 21 21 21 22 22 23 23 23 21 21 22 22 24 26 28 28 30 31 34 37
42 39 37 34 31 32 20 20 20 19 18 15 11 12 13 14 15 14 18 17 17 18 18 20 21 21 21 22 23 24 24 24 24 24 24 25 26 29 31 33 35 38 41 43
45 43 41 38 33 27 24 20 22 22 18 15 14 12 12 14 15 15 16 17 18 18 19 21 22 23 23 23 23 24 26 27 27 27 28 29 31 32 35 37 39 42 45 50
46 47 46 42 36 30 22 21 23 22 19 18 16 13 14 14 14 15 15 16 18 19 20 22 23 24 24 25 26 27 28 31 32 31 31 32 35 38 40 42 45 48 51 55
45 46 47 43 39 32 25 25 25 24 19 20 19 16 15 16 14 14 14 16 17 18 20 21 23 24 25 25 26 28 29 31 32 33 34 35 38 41 44 48 51 54 58 62
45 45 46 46 43 33 29 29 27 25 25 23 20 17 17 16 15 15 15 16 17 19 20 21 23 24 25 26 27 29 31 33 34 35 36 37 41 44 48 52 56 60 63 67
50 48 43 42 39 36 34 32 30 30 27 24 22 21 20 18 18 17 17 17 18 19 21 23 24 25 26 28 29 30 32 34 37 38 40 41 44 48 52 56 59 62 66 71
50 49 46 43 40 39 38 36 31 30 29 26 25 23 21 20 20 20 20 20 20 21 23 24 26 27 28 30 31 32 34 36 38 40 42 44 46 50 55 59 62 66 69 73
51 49 48 47 43 41 39 36 35 34 31 28 27 25 23 22 21 22 22 23 22 22 25 26 28 29 30 32 34 35 37 39 40 43 44 46 49 52 56 60 64 67 71 73
53 51 51 47 40 44 41 41 40 37 34 31 29 27 25 23 24 23 24 24 24 25 27 28 30 31 32 35 37 39 40 41 42 45 47 48 51 53 57 60 63 66 70 64
Wind_Direction
183 173 184 196 205 210 210 216 220 227 228 228 231 238 244 248 251 254 255 255 255 255 257 257 260 258 256 258 257 258 254 249 243 238 235 238 244 246 246 248 245 245 247 248
188 189 191 197 200 207 209 213 218 226 231 232 233 238 243 247 252 257 260 262 262 260 257 255 255 257 258 259 260 259 256 252 247 244 239 237 238 243 245 244 249 248 247 249
200 199 203 205 206 210 216 219 220 224 229 235 239 247 255 262 265 267 269 272 271 267 264 261 258 256 255 254 254 255 256 255 251 245 242 240 240 238 241 243 239 244 246 246
201 206 209 218 217 217 221 223 223 228 231 236 250 260 263 266 269 272 275 275 274 272 269 265 262 259 255 253 251 250 251 250 250 248 244 241 239 240 239 241 245 242 244 247
206 209 218 218 229 229 223 226 225 228 234 246 256 261 270 276 277 280 286 287 286 282 279 277 271 268 263 257 252 249 248 248 246 246 244 243 241 240 241 241 241 243 244 242
210 217 219 223 224 223 224 228 231 231 236 243 252 258 270 281 298 309 315 316 307 297 298 296 298 307 298 289 277 260 246 243 246 244 244 241 240 241 239 242 242 241 249 244
218 221 223 227 220 222 223 224 226 229 233 247 259 271 281 294 315 327 328 332 318 311 308 315 313 318 316 316 308 297 258 250 244 241 243 243 240 239 241 240 244 243 244 243
219 222 225 225 225 224 228 230 231 231 234 239 257 273 289 303 322 330 339 348 327 317 299 303 302 309 322 321 323 316 317 303 252 242 242 240 242 239 239 241 242 244 245 248
222 226 225 224 227 234 237 238 240 246 249 251 263 275 288 303 320 332 344 357 341 289 288 296 302 289 310 319 327 321 313 312 301 265 244 241 240 240 239 240 242 246 244 248
223 228 224 221 225 234 240 243 249 253 256 256 266 273 282 295 314 327 343 351 357 313 296 290 291 288 298 304 305 310 315 306 308 313 269 250 242 241 240 240 241 245 246 247
226 231 229 229 231 233 235 239 245 251 256 260 265 272 279 289 302 316 332 352 356 339 346 352 342 323 317 312 297 294 299 304 313 338 333 291 255 244 241 241 243 242 247 246
228 234 228 226 228 231 234 240 245 251 258 264 268 275 281 287 295 304 315 321 329 347 350 350 349 351 355 1 1 347 317 306 307 311 328 339 319 272 255 243 244 246 246 251
228 234 231 227 227 230 234 242 250 256 264 266 268 274 283 290 300 306 313 312 310 320 329 336 345 352 353 354 356 357 360 2 3 353 329 313 303 301 287 270 265 259 252 251
227 232 233 229 227 229 231 238 247 256 263 269 272 274 279 286 295 299 299 306 309 313 321 324 329 334 335 338 345 348 354 0 1 358 351 346 339 318 296 281 278 276 274 270
228 229 232 231 228 231 234 238 246 255 262 270 271 275 277 279 289 294 298 304 310 320 324 325 332 332 329 332 335 337 338 343 345 346 343 340 334 326 316 307 300 291 284 278
230 230 230 230 227 233 236 240 248 256 265 269 273 280 276 279 285 288 294 307 314 323 327 331 334 331 328 330 332 330 329 329 329 328 331 332 329 325 320 315 310 305 300 294
225 225 227 227 227 232 235 237 246 252 264 265 275 274 279 279 283 288 292 305 311 320 324 325 327 325 327 328 328 327 327 325 323 321 325 329 330 328 324 320 317 313 306 302
223 221 224 225 226 232 233 237 247 249 253 262 271 280 289 287 288 291 291 305 308 316 320 322 322 321 325 325 323 323 323 324 325 323 321 323 324 324 323 321 319 315 314 310
223 222 224 226 227 233 231 239 248 252 254 262 267 275 283 287 292 294 301 307 308 312 316 317 318 320 324 323 322 321 323 327 326 323 321 321 322 322 321 320 318 317 314 312
221 222 223 224 227 231 231 245 254 258 256 263 262 267 277 285 291 298 303 305 309 313 315 316 318 319 320 320 321 324 327 327 325 321 318 318 319 320 321 319 318 316 314 313
222 225 226 228 231 233 235 239 249 259 270 260 263 268 274 281 291 294 300 307 311 313 314 314 316 316 315 315 318 323 324 323 321 319 317 317 317 318 319 318 318 317 316 315
224 229 229 229 232 233 236 241 247 254 258 261 262 263 268 278 284 287 296 304 309 313 312 312 316 316 315 315 318 320 322 323 322 321 319 318 319 320 320 320 319 319 319 318
222 227 232 233 233 235 237 242 241 248 256 260 259 262 267 276 282 289 292 298 305 310 311 313 316 317 318 318 317 316 319 322 324 324 322 321 321 322 322 321 321 322 322 322
225 225 229 230 232 235 238 241 240 245 252 254 256 259 265 272 279 286 291 295 303 308 309 313 315 318 322 322 319 317 319 321 323 323 323 322 322 323 324 324 325 326 325 327
227 228 230 230 230 234 237 238 238 238 244 250 254 256 260 268 275 279 285 292 299 303 307 311 316 319 323 324 323 321 319 319 322 324 323 323 324 325 326 328 329 329 331 332
225 226 229 231 228 233 232 235 236 238 241 245 251 254 257 262 268 272 277 286 294 299 304 311 314 319 320 323 324 324 321 320 322 324 323 323 324 326 328 330 331 332 335 332